This demonstration page uses our WeatherBlox Daily Observations layout. Learn more.

Left ArrowRight Arrow

Hourly Observations for April 22, 2017

Temp ( °F °C ) Dew Point ( °F °C ) Humidity (%) Winds ( mph kmh ) Pressure ( in mb ) Visibility ( mi km ) Precip ( " mm )
12:15 am 00:15 Partly Cloudy 45 7 34 1 66 66 N 6 9 30.27 1025 10 16 0.00 0.00
12:35 am 00:35 Mostly Cloudy 45 7 34 1 66 66 N 7 11 30.27 1025 10 16 0.00 0.00
12:55 am 00:55 Partly Cloudy 45 7 34 1 66 66 N 7 11 30.27 1025 10 16 0.00 0.00
1:15 am 01:15 Clear 43 6 34 1 71 71 NNW 6 9 30.30 1026 10 16 0.00 0.00
1:35 am 01:35 Clear 43 6 34 1 71 71 NNW 8 13 30.30 1026 10 16 0.00 0.00
1:55 am 01:55 Clear 41 5 32 0 70 70 NNW 6 9 30.30 1026 10 16 0.00 0.00
2:15 am 02:15 Clear 41 5 34 1 76 76 NNW 6 9 30.30 1026 10 16 0.00 0.00
2:35 am 02:35 Partly Cloudy 39 4 32 0 75 75 NW 3 6 30.30 1026 10 16 0.00 0.00
2:55 am 02:55 Cloudy 41 5 34 1 76 76 NW 6 9 30.30 1026 10 16 0.00 0.00
3:15 am 03:15 Mostly Cloudy 41 5 34 1 76 76 NNW 7 11 30.30 1026 10 16 0.00 0.00
3:35 am 03:35 Mostly Clear 41 5 34 1 76 76 NNW 8 13 30.30 1026 10 16 0.00 0.00
3:55 am 03:55 Clear 41 5 34 1 76 76 NNW 8 13 30.30 1026 10 16 0.00 0.00
4:15 am 04:15 Clear 39 4 34 1 81 81 NNW 6 9 30.30 1026 10 16 0.00 0.00
4:35 am 04:35 Mostly Clear 41 5 34 1 76 76 N 5 7 30.30 1026 10 16 0.00 0.00
4:55 am 04:55 Mostly Clear 43 6 34 1 71 71 NNW 6 9 30.30 1026 10 16 0.00 0.00
5:15 am 05:15 Clear 41 5 34 1 76 76 NNW 6 9 30.30 1026 10 16 0.00 0.00
5:35 am 05:35 Clear 39 4 34 1 81 81 NNW 8 13 30.30 1026 10 16 0.00 0.00
5:55 am 05:55 Clear 39 4 34 1 81 81 NNW 7 11 30.30 1026 10 16 0.00 0.00
6:15 am 06:15 Clear 39 4 34 1 81 81 N 7 11 30.30 1026 10 16 0.00 0.00
6:35 am 06:35 Clear 39 4 32 0 75 75 N 7 11 30.30 1026 10 16 0.00 0.00
6:55 am 06:55 Sunny 37 3 32 0 81 81 NNW 6 9 30.36 1028 10 16 0.00 0.00
7:15 am 07:15 Sunny 37 3 32 0 81 81 NNW 5 7 30.36 1028 10 16 0.00 0.00
7:35 am 07:35 Sunny 37 3 32 0 81 81 NNW 7 11 30.36 1028 10 16 0.00 0.00
7:55 am 07:55 Sunny 39 4 34 1 81 81 NNW 7 11 30.33 1027 10 16 0.00 0.00
8:15 am 08:15 Sunny 43 6 36 2 76 76 NNW 7 11 30.33 1027 10 16 0.00 0.00
8:35 am 08:35 Sunny 45 7 36 2 71 71 N 6 9 30.33 1027 10 16 0.00 0.00
8:55 am 08:55 Sunny 46 8 36 2 66 66 N 6 9 30.30 1026 10 16 0.00 0.00
9:15 am 09:15 Sunny 48 9 37 3 66 66 NNE 7 11 30.30 1026 10 16 0.00 0.00
9:35 am 09:35 Sunny 52 11 36 2 54 54 NNE 6 9 30.27 1025 10 16 0.00 0.00
9:55 am 09:55 Sunny 52 11 34 1 50 50 NNE 10 17 30.27 1025 10 16 0.00 0.00
10:15 am 10:15 Sunny 54 12 30 -1 41 41 Calm 30.27 1025 10 16 0.00 0.00
10:35 am 10:35 Sunny 54 12 30 -1 41 41 NNE 7 11 30.27 1025 10 16 0.00 0.00
10:55 am 10:55 Partly Cloudy 54 12 32 0 44 44 NNW 6 9 30.27 1025 10 16 0.00 0.00
11:15 am 11:15 Mostly Cloudy 55 13 32 0 41 41 N 3 6 30.27 1025 10 16 0.00 0.00
11:35 am 11:35 Mostly Cloudy 55 13 34 1 44 44 NNE 8 13 30.27 1025 10 16 0.00 0.00
11:55 am 11:55 Mostly Sunny 57 14 30 -1 36 36 ENE 6 9 30.27 1025 10 16 0.00 0.00
12:15 pm 12:15 Sunny 57 14 30 -1 36 36 N 9 15 30.27 1025 10 16 0.00 0.00
12:35 pm 12:35 Sunny 57 14 28 -2 33 33 N 12 19 30.27 1025 10 16 0.00 0.00
12:55 pm 12:55 Mostly Sunny 57 14 28 -2 33 33 NNW 8 13 30.27 1025 10 16 0.00 0.00
1:15 pm 13:15 Mostly Sunny 59 15 28 -2 31 31 NNE 8 13 30.24 1024 10 16 0.00 0.00
1:35 pm 13:35 Mostly Sunny 61 16 28 -2 29 29 NNE 13 20 30.24 1024 10 16 0.00 0.00
1:55 pm 13:55 Mostly Sunny 61 16 28 -2 29 29 NNE 5 7 30.24 1024 10 16 0.00 0.00
2:15 pm 14:15 Mostly Sunny 63 17 30 -1 30 30 N 12 19 30.24 1024 10 16 0.00 0.00
2:35 pm 14:35 Sunny 61 16 28 -2 29 29 N 7 11 30.24 1024 10 16 0.00 0.00
2:55 pm 14:55 Sunny 63 17 27 -3 25 25 NE 6 9 30.24 1024 10 16 0.00 0.00
3:15 pm 15:15 Sunny 63 17 28 -2 27 27 E 7 11 30.21 1023 10 16 0.00 0.00
3:35 pm 15:35 Sunny 63 17 27 -3 25 25 N 10 17 30.21 1023 10 16 0.00 0.00
3:55 pm 15:55 Sunny 63 17 27 -3 25 25 NNE 3 6 30.21 1023 10 16 0.00 0.00
4:15 pm 16:15 Sunny 63 17 27 -3 25 25 ENE 9 15 30.21 1023 10 16 0.00 0.00
4:35 pm 16:35 Sunny 63 17 28 -2 27 27 NNW 5 7 30.18 1022 10 16 0.00 0.00
4:55 pm 16:55 Sunny 64 18 28 -2 26 26 NNW 8 13 30.15 1021 10 16 0.00 0.00
5:15 pm 17:15 Sunny 63 17 27 -3 25 25 N 9 15 30.18 1022 10 16 0.00 0.00
5:35 pm 17:35 Sunny 64 18 27 -3 24 24 WNW 6 9 30.15 1021 10 16 0.00 0.00
5:55 pm 17:55 Sunny 64 18 27 -3 24 24 E 9 15 30.15 1021 10 16 0.00 0.00
6:15 pm 18:15 Sunny 63 17 27 -3 25 25 NE 7 11 30.18 1022 10 16 0.00 0.00
6:35 pm 18:35 Sunny 63 17 27 -3 25 25 NNW 3 6 30.18 1022 10 16 0.00 0.00
6:55 pm 18:55 Sunny 63 17 27 -3 25 25 NNE 8 13 30.18 1022 10 16 0.00 0.00
7:15 pm 19:15 Sunny 63 17 27 -3 25 25 Calm 30.18 1022 10 16 0.00 0.00
7:35 pm 19:35 Sunny 61 16 28 -2 29 29 N 5 7 30.18 1022 10 16 0.00 0.00
7:55 pm 19:55 Sunny 59 15 28 -2 31 31 NNE 5 7 30.18 1022 10 16 0.00 0.00
8:15 pm 20:15 Sunny 57 14 27 -3 31 31 NNE 3 6 30.18 1022 10 16 0.00 0.00
8:35 pm 20:35 Clear 57 14 25 -4 29 29 Calm 30.18 1022 10 16 0.00 0.00
8:55 pm 20:55 Clear 55 13 25 -4 31 31 NNE 3 6 30.21 1023 10 16 0.00 0.00
9:15 pm 21:15 Clear 54 12 27 -3 35 35 NNE 3 6 30.21 1023 9 14 0.00 0.00
9:35 pm 21:35 Clear 54 12 27 -3 35 35 Calm 30.24 1024 10 16 0.00 0.00
9:55 pm 21:55 Clear 55 13 27 -3 33 33 Calm 30.24 1024 10 16 0.00 0.00
10:15 pm 22:15 Clear 50 10 27 -3 40 40 Calm 30.27 1025 9 14 0.00 0.00
10:35 pm 22:35 Clear 54 12 27 -3 35 35 Calm 30.24 1024 10 16 0.00 0.00
10:55 pm 22:55 Clear 48 9 27 -3 43 43 Calm 30.27 1025 10 16 0.00 0.00
11:15 pm 23:15 Clear 50 10 27 -3 40 40 Calm 30.27 1025 10 16 0.00 0.00
11:35 pm 23:35 Clear 48 9 25 -4 40 40 Calm 30.24 1024 10 16 0.00 0.00
11:55 pm 23:55 Clear 46 8 27 -3 46 46 Calm 30.24 1024 10 16 0.00 0.00

Powered by AerisWeather